Lid_Strength_Index
14 14 15 15 15 15 15 15 15 15 15 15 15 15 15 15 16 16 16 16 16 16 16 16 16 16 15 15 14 14 14 13
14 15 15 15 15 16 16 16 16 15 15 16 16 16 15 16 16 16 16 16 16 16 16 16 16 16 15 15 14 14 14 14
14 14 15 15 15 16 16 16 16 16 16 16 16 16 16 16 16 16 16 16 16 16 16 16 16 15 15 15 14 14 14 13
14 15 15 15 15 16 16 16 16 16 16 17 17 16 16 16 16 16 16 16 16 16 16 16 15 15 15 14 14 13 13 13
14 14 15 15 15 16 16 16 16 16 17 17 17 16 16 16 16 16 16 17 17 16 16 15 15 15 14 14 13 13 13 12
13 14 15 15 15 15 15 16 15 16 17 16 16 16 16 16 16 16 16 16 16 16 16 15 15 14 14 13 13 13 13 12
13 14 14 15 15 15 15 16 15 16 16 16 16 16 16 16 16 16 16 16 16 16 16 16 14 12 12 12 13 12 12 12
13 13 13 14 14 15 15 15 16 16 16 17 16 16 16 16 16 16 17 16 16 16 16 15 15 12 11 11 12 12 12 11
12 12 13 13 14 14 15 16 16 16 16 17 16 16 17 17 17 17 16 16 16 16 15 15 15 11 11 11 12 12 11 11
12 12 12 13 13 14 15 16 16 16 16 16 16 17 16 17 17 17 16 16 16 16 16 16 16 11 10 10 12 12 11 10
13 14 13 14 14 14 15 15 16 16 15 15 16 16 16 16 17 16 17 15 15 15 16 16 18 11 10 10 12 16 12 11
14 14 15 15 15 16 16 15 16 16 16 16 16 15 15 16 17 16 17 16 17 17 18 18 16 15 10 9 11 12 13 12
16 16 16 16 16 17 16 16 17 17 17 17 17 15 15 15 18 17 17 19 20 21 20 17 15 13 11 9 8 9 11 12
17 17 16 17 16 16 16 17 17 18 18 19 18 17 17 17 18 19 19 18 19 17 17 16 14 14 9 9 8 7 9 9
17 18 18 18 17 18 17 17 18 18 18 18 18 19 19 18 17 18 18 18 17 17 16 18 15 14 14 13 13 10 9 9
17 17 17 18 18 19 18 17 18 18 18 19 19 19 19 19 19 17 18 16 19 19 18 17 17 15 12 13 15 14 11 11
18 18 18 18 19 19 18 17 17 18 18 18 18 19 19 19 20 12 12 11 9 9 13 18 11 10 8 8 7 6 5 12
16 18 18 19 19 21 20 18 18 18 18 17 17 18 18 19 18 20 15 9 9 9 8 8 8 7 7 7 6 6 7 20
17 19 19 19 23 23 22 20 20 21 18 18 19 19 19 19 19 19 19 20 18 12 11 10 9 9 8 8 8 10 11 24
20 22 22 23 25 25 24 21 21 20 21 19 19 20 19 18 19 19 20 20 20 20 16 14 11 10 9 8 11 14 16 19